TIANLIAN 1-05

Last updated on Mon Jun 22 2026 00:03:07 GMT+0000 (Coordinated Universal Time)

1 49011U 21063A 26171.89432105 .00000104 00000+0 00000+0 0 9999 2 49011 1.6045 80.6811 0000581 349.1913 177.9819 1.00272457 18112
UTC large
Height (km)
Speed (km/s)
/
Latitude / Longitude
Inclination (degrees)
Orbital Period (minutes)
Azimuth
Elevation
Range (km)
Doppler Factor

Next 0 passes for location: London (51.5072 / 0.1276)

No passes found over London.
TIANLIAN 1-05